Powrót do katalogu

CZ-6A DEB

AktywnyPO
NORAD 61168·DEBRIS·🇨🇳 China

Wystrzelony Aug 6, 2024 z Taiyuan Satellite Launch Center

Loading…

Następne Przeloty (najbliższe 24 godziny)

TLE

ŚwieżeSource: Space-Track

Epoka: Sep 13, 2026, 05:45 UTC

1 61168U 24140RN  26256.23962578  .00107433  00000-0  38167-2 0  9991
2 61168  88.1434 171.8270 0025511 166.6716 193.5213 15.28282384111623

Śledź CZ-6A DEB w czasie rzeczywistym z AllMySat

Download on the App Store